Simultaneous Nadir Overpasses (SNOs) Predictions

Prediction of SNOs between AQUA and METOP-B Satellite Orbit:

Table of predicted SNOs for the next 14.0 days since TLE Epoch: 10/18/2013
Index Date (AQUA) Time (AQUA) Lat,Lon (AQUA) SZA (AQUA ) Date (METOP-B) Time (METOP-B) Lat,Lon (METOP-B) SZA (METOP-B ) Distance(km) Time Diff (sec)
1 10/19/2013 05:49:50 73.74, 86.94 83.70 10/19/2013 05:49:25 73.72, 86.92 83.68 2.32 25
2 10/19/2013 06:39:17 -73.83,-105.61 96.20 10/19/2013 06:40:04 -73.82,-105.53 96.21 2.66 47
3 10/22/2013 00:34:24 -73.32, -13.34 95.74 10/22/2013 00:33:15 -73.22, -15.13 95.81 58.43 69
4 10/22/2013 01:24:00 73.76, 153.37 84.72 10/22/2013 01:23:45 73.75, 153.40 84.72 1.21 15
5 10/22/2013 02:13:26 -73.79, -39.06 95.24 10/22/2013 02:14:25 -73.80, -39.16 95.23 3.21 59
6 10/24/2013 20:08:40 -73.69, 52.35 94.38 10/24/2013 20:07:27 -73.65, 52.24 94.42 5.12 73
7 10/24/2013 20:58:09 73.76,-140.19 85.71 10/24/2013 20:58:05 73.77,-140.14 85.72 1.61 4
8 10/24/2013 21:47:36 -73.85, 27.28 94.20 10/24/2013 21:48:45 -73.83, 27.32 94.22 2.52 69
9 10/27/2013 15:42:48 -73.73, 118.71 93.38 10/27/2013 15:41:45 -73.72, 118.82 93.39 3.51 63
10 10/27/2013 16:32:16 73.76, -73.71 86.67 10/27/2013 16:32:24 73.79, -73.70 86.69 2.72 8
11 10/27/2013 17:21:48 -74.10, 93.17 92.98 10/27/2013 17:22:58 -74.14, 94.50 92.95 40.60 70
12 10/30/2013 11:16:55 -73.72,-174.78 92.46 10/30/2013 11:16:05 -73.73,-174.74 92.44 2.25 50
13 10/30/2013 12:06:24 73.80, -7.33 87.64 10/30/2013 12:06:44 73.79, -7.27 87.63 2.37 20




NCC Satellite Simultaneous Nadir Overpasses (SNOs) Prediction Service
